Location: Unspecified
(0.0000°N, 0.0000°E)
Time: 20:05:58
(UTC+00:00)

STARLINK-30236 - Visible Passes

Search period start: 10 November 2025 00:00
Search period end: 20 November 2025 00:00
Orbit: 558 x 560 km, 43.0° (Epoch: 08 November)

Date Brightness Start Highest point End Pass type
(mag) Time Alt. Az. Time Alt. Az. Time Alt. Az.
10 Nov 3.5 18:27:23 10° NW 18:31:37 79° NE 18:35:50 10° SE visible
11 Nov 4.4 18:24:29 10° NW 18:28:37 57° SW 18:32:46 10° SSE visible
12 Nov 6.6 04:44:10 10° S 04:46:37 15° SE 04:49:03 10° E visible
12 Nov 5.6 18:21:52 10° WNW 18:25:38 32° SW 18:29:26 10° SSE visible
13 Nov 6.0 04:40:10 10° S 04:43:40 25° SE 04:47:09 10° E visible
13 Nov 6.5 18:19:39 10° W 18:22:41 19° SW 18:25:43 10° S visible
14 Nov 4.9 04:36:41 10° SSW 04:40:42 43° SE 04:44:43 10° ENE visible
14 Nov 7.0 18:18:26 10° WSW 18:19:46 11° SW 18:21:05 10° SSW visible
15 Nov 3.7 04:33:30 10° SW 04:37:43 79° SE 04:41:56 10° NE visible
16 Nov 3.6 04:32:22 24° WSW 04:34:45 57° NW 04:38:53 10° NNE visible
17 Nov 4.4 04:31:56 32° NW 04:31:56 32° NW 04:35:34 10° NNE visible
18 Nov 5.8 04:31:06 13° N 04:31:06 13° N 04:31:52 10° N visible
